Flag for Germany Weather past 2 weeks in Euskirchen, North Rhine-Westphalia, Germany

Now
93 °F

Partly sunny.


Feels Like: 95 °F
Forecast: 68 / 87 °F
Wind: 7 mph from Southwest

Location: Noervenich

Current Time: Jul 4, 2015 at 2:25:53 PM

Latest Report: Jul 4, 2015 at 1:20 PM


Visibility: N/A

Pressure: 30.07 "Hg

Humidity: 39%

Dew point: 64 °F

Location of EuskirchenLocation

Historic Weather in Euskirchen — Graph

°F

Euskirchen temperature yesterday

Maximum temperature yesterday: 91 °F (at 6:20 PM)
Minimum temperature yesterday: 68 °F (at 4:20 AM)
Average temperature yesterday: 79 °F

Past Weeks' High & Low Weather Summary

 TemperatureHumidityPressure
High99 °F (Jul 2, 4:20 PM)100% (Jun 22, 11:20 PM)30.24 "Hg (Jun 22, 11:20 PM)
Low48 °F (Jun 22, 11:20 PM)25% (Jun 30, 6:20 PM)29.68 "Hg (Jun 22, 8:20 PM)
Average67 °F66%30.08 "Hg
* Reported Jun 19 1:20 PM — Jul 4 1:20 PM, Euskirchen, Weather by CustomWeather, © 2015

Note: Actual official high and low records may vary slightly from our data, if they occured in-between our weather recording intervals... More about our weather records

Advertising

Euskirchen weather history for previous 24 hours

 ConditionsComfort  
Time TempWeatherWind HumidityBarometerVisibility
1:20 PM
Sat, Jul 4
93 °FPartly sunny.7 mph39%30.07 "HgN/A
12:20 PM93 °FPartly sunny.7 mph41%30.07 "HgN/A
11:20 AM91 °FPartly sunny.7 mph44%30.07 "HgN/A
10:20 AM88 °FPartly sunny.2 mph52%30.07 "HgN/A
9:20 AM84 °FPartly sunny.2 mph58%30.07 "HgN/A
8:20 AM81 °FPartly sunny.3 mph66%30.07 "HgN/A
7:20 AM75 °FPartly sunny.2 mph78%30.07 "HgN/A
6:20 AM72 °FPassing clouds.2 mph88%30.07 "HgN/A
5:20 AM72 °FPassing clouds.1 mph83%30.07 "HgN/A
4:20 AM73 °FPassing clouds.1 mph83%30.09 "HgN/A
3:20 AM73 °FPassing clouds.2 mph83%30.09 "HgN/A
2:20 AM72 °FPassing clouds.No wind88%30.12 "HgN/A
1:20 AM75 °FPassing clouds.No wind78%30.12 "HgN/A
12:20 AM77 °FPassing clouds.No wind74%30.15 "HgN/A
11:20 PM
Fri, Jul 3
81 °FPassing clouds.2 mph66%30.15 "HgN/A
10:20 PM81 °FPartly sunny.2 mph70%30.15 "HgN/A
9:20 PM84 °FPartly sunny.3 mph58%30.15 "HgN/A
8:20 PM88 °FScattered clouds.2 mph49%30.15 "HgN/A
7:20 PM91 °FPassing clouds.2 mph41%30.15 "HgN/A
6:20 PM91 °FPassing clouds.3 mph41%30.15 "HgN/A
5:20 PM90 °FPassing clouds.2 mph46%30.18 "HgN/A
4:20 PM90 °FPassing clouds.1 mph46%30.18 "HgN/A
3:20 PM88 °FPassing clouds.1 mph49%30.21 "HgN/A
2:20 PM86 °FWarm.1 mph52%30.21 "HgN/A
Weather by CustomWeather, © 2015

See weather overviewHow to use our weather pages